Time,TemperatureF,DewpointF,PressureIn,WindDirection,WindDirectionDegrees,WindSpeedMPH,WindSpeedGustMPH,Humidity,HourlyPrecipIn,Conditions,Clouds,dailyrainin,SoftwareType,DateUTC
2013-10-13 00:00:00,47.3,47.3,19.99,SE,131,3.0,10.0,100,0.00,,---,0.00,VWS V13.00,2013-10-13 04:00:00,
2013-10-13 00:30:00,46.9,46.9,19.99,South,177,2.0,7.0,100,0.00,,---,0.00,VWS V13.00,2013-10-13 04:30:00,
2013-10-13 01:00:00,46.5,46.5,19.99,ESE,110,4.0,10.0,100,0.00,,---,0.00,VWS V13.00,2013-10-13 05:00:00,
2013-10-13 01:30:00,46.4,46.4,19.99,SE,125,2.0,8.0,100,0.00,,---,0.00,VWS V13.00,2013-10-13 05:30:00,
2013-10-13 02:00:00,46.4,46.4,19.99,SE,130,0.0,3.0,100,0.00,,---,0.00,VWS V13.00,2013-10-13 06:00:00,
2013-10-13 02:30:00,46.3,46.3,19.99,SE,143,0.0,6.0,100,0.00,,---,0.00,VWS V13.00,2013-10-13 06:30:00,
2013-10-13 03:00:00,46.2,46.2,19.99,SE,124,1.0,8.0,100,0.00,,---,0.00,VWS V13.00,2013-10-13 07:00:00,
2013-10-13 03:30:00,46.0,46.0,19.99,SE,126,0.0,7.0,100,0.00,,---,0.00,VWS V13.00,2013-10-13 07:30:00,
2013-10-13 04:00:00,46.1,46.1,20.00,SE,131,1.0,6.0,100,0.00,,---,0.00,VWS V13.00,2013-10-13 08:00:00,
2013-10-13 05:30:00,44.7,44.7,20.00,SE,134,2.0,5.0,100,0.00,,---,0.00,VWS V13.00,2013-10-13 09:30:00,
2013-10-13 06:00:00,44.3,44.3,19.99,SE,134,0.0,2.0,100,0.00,,---,0.00,VWS V13.00,2013-10-13 10:00:00,
2013-10-13 06:30:00,43.8,43.8,19.99,SE,134,0.0,1.0,100,0.00,,---,0.00,VWS V13.00,2013-10-13 10:30:00,
2013-10-13 07:00:00,43.3,43.3,19.99,SE,134,0.0,0.0,100,0.00,,---,0.00,VWS V13.00,2013-10-13 11:00:00,
2013-10-13 07:30:00,43.7,43.7,20.00,SE,134,0.0,0.0,100,0.00,,---,0.00,VWS V13.00,2013-10-13 11:30:00,
2013-10-13 08:00:00,43.2,43.2,19.99,SE,134,0.0,4.0,100,0.00,,---,0.00,VWS V13.00,2013-10-13 12:00:00,
2013-10-13 08:30:00,43.3,43.3,19.99,SE,131,0.0,7.0,100,0.00,,---,0.00,VWS V13.00,2013-10-13 12:30:00,
2013-10-13 09:00:00,44.3,44.3,19.99,SSE,147,2.0,7.0,100,0.00,,---,0.00,VWS V13.00,2013-10-13 13:00:00,
2013-10-13 09:30:00,46.0,46.0,19.99,SE,124,1.0,9.0,100,0.00,,---,0.00,VWS V13.00,2013-10-13 13:30:00,
2013-10-13 10:00:00,48.7,48.7,19.99,SE,124,3.0,11.0,100,0.00,,---,0.00,VWS V13.00,2013-10-13 14:00:00,
2013-10-13 10:30:00,50.1,50.1,20.00,ESE,115,2.0,13.0,100,0.00,,---,0.00,VWS V13.00,2013-10-13 14:30:00,
2013-10-13 11:00:00,51.4,51.4,19.99,SE,132,4.0,13.0,100,0.00,,---,0.00,VWS V13.00,2013-10-13 15:00:00,
2013-10-13 11:30:00,52.5,52.5,20.00,ESE,116,5.0,13.0,100,0.00,,---,0.00,VWS V13.00,2013-10-13 15:30:00,
2013-10-13 12:00:00,52.8,52.8,19.99,West,276,0.0,15.0,100,0.00,,---,0.00,VWS V13.00,2013-10-13 16:00:00,
2013-10-13 12:30:00,54.4,54.4,19.99,SSE,161,2.0,11.0,100,0.00,,---,0.00,VWS V13.00,2013-10-13 16:30:00,
2013-10-13 13:00:00,55.4,55.4,19.99,SE,125,2.0,15.0,100,0.00,,---,0.00,VWS V13.00,2013-10-13 17:00:00,
2013-10-13 13:30:00,56.1,56.1,19.99,ESE,113,0.0,11.0,100,0.00,,---,0.00,VWS V13.00,2013-10-13 17:30:00,
2013-10-13 14:00:00,58.1,58.1,20.00,SE,130,1.0,13.0,100,0.00,,---,0.00,VWS V13.00,2013-10-13 18:00:00,
2013-10-13 14:30:00,58.5,58.5,19.99,WNW,299,3.0,10.0,100,0.00,,---,0.00,VWS V13.00,2013-10-13 18:30:00,
2013-10-13 15:00:00,58.0,58.0,19.99,SSW,202,2.0,13.0,100,0.00,,---,0.00,VWS V13.00,2013-10-13 19:00:00,
2013-10-13 15:30:00,57.5,57.5,19.99,WSW,257,0.0,10.0,100,0.00,,---,0.00,VWS V13.00,2013-10-13 19:30:00,
2013-10-13 16:00:00,57.9,57.9,19.99,SE,141,1.0,10.0,100,0.00,,---,0.00,VWS V13.00,2013-10-13 20:00:00,
2013-10-13 16:30:00,57.2,57.2,19.99,SSE,168,2.0,13.0,100,0.00,,---,0.00,VWS V13.00,2013-10-13 20:30:00,
2013-10-13 17:00:00,55.7,55.7,20.00,South,178,3.0,16.0,100,0.00,,---,0.00,VWS V13.00,2013-10-13 21:00:00,
2013-10-13 17:30:00,54.1,54.1,19.99,SE,128,3.0,12.0,100,0.00,,---,0.00,VWS V13.00,2013-10-13 21:30:00,
2013-10-13 18:00:00,52.6,52.6,20.00,SE,139,2.0,11.0,100,0.00,,---,0.00,VWS V13.00,2013-10-13 22:00:00,
2013-10-13 18:30:00,51.4,51.4,19.99,SE,144,0.0,7.0,100,0.00,,---,0.00,VWS V13.00,2013-10-13 22:30:00,
2013-10-13 19:00:00,50.5,50.5,19.99,SE,135,7.0,12.0,100,0.00,,---,0.00,VWS V13.00,2013-10-13 23:00:00,
2013-10-13 19:30:00,48.9,48.9,19.99,ESE,122,4.0,14.0,100,0.00,,---,0.00,VWS V13.00,2013-10-13 23:30:00,
2013-10-13 20:00:00,47.7,47.7,19.99,SSE,147,1.0,12.0,100,0.00,,---,0.00,VWS V13.00,2013-10-14 00:00:00,
2013-10-13 20:30:00,46.9,46.9,20.00,SE,139,1.0,9.0,100,0.00,,---,0.00,VWS V13.00,2013-10-14 00:30:00,
2013-10-13 21:00:00,46.2,46.2,19.99,SE,131,1.0,7.0,100,0.00,,---,0.00,VWS V13.00,2013-10-14 01:00:00,
2013-10-13 21:30:00,45.6,45.6,19.99,SE,129,1.0,9.0,100,0.00,,---,0.00,VWS V13.00,2013-10-14 01:30:00,
2013-10-13 22:00:00,45.3,45.3,19.99,SE,139,1.0,9.0,100,0.00,,---,0.00,VWS V13.00,2013-10-14 02:00:00,
2013-10-13 22:30:00,44.4,44.4,19.99,SE,131,1.0,6.0,100,0.00,,---,0.00,VWS V13.00,2013-10-14 02:30:00,
2013-10-13 23:00:00,44.3,44.3,19.99,SE,133,0.0,6.0,100,0.00,,---,0.00,VWS V13.00,2013-10-14 03:00:00,
2013-10-13 23:30:00,44.3,44.3,20.00,SE,133,0.0,4.0,100,0.00,,---,0.00,VWS V13.00,2013-10-14 03:30:00,